AZU4310 SBVT-SBRF

Flight info

Callsign AZU4310
Flight time 2h 18m
Altitude 39000
Route TERAT UZ42 ANBEX
Aircraft A20N/M-SDE2E3FGHIRWXY/LB1

Departure

Time 2026-05-03 21:10
Airport Eurico de Aguiar Salles International Airport (SBVT)

Arrival

Time 2026-05-03 23:28
Airport Recife/Guararapes - Gilberto Freyre International Airport (SBRF)
Time Latitude Longitude Altitude Speed Heading
2026-05-03 20:42 -20.26573 -40.28164 27 ft 0 kts 263°
2026-05-03 21:00 -20.26572 -40.28160 27 ft 2 kts 263°
2026-05-03 21:01 -20.26570 -40.28141 27 ft 2 kts 263°
2026-05-03 21:01 -20.26568 -40.28123 27 ft 2 kts 263°
2026-05-03 21:01 -20.26565 -40.28105 27 ft 2 kts 263°
2026-05-03 21:01 -20.26566 -40.28088 27 ft 2 kts 315°
2026-05-03 21:02 -20.26573 -40.28081 27 ft 1 kts 358°
2026-05-03 21:03 -20.26572 -40.28081 27 ft 1 kts 352°
2026-05-03 21:03 -20.26568 -40.28084 27 ft 0 kts 334°
2026-05-03 21:03 -20.26563 -40.28086 27 ft 4 kts 338°
2026-05-03 21:04 -20.26520 -40.28064 27 ft 9 kts 37°
2026-05-03 21:04 -20.26459 -40.28044 27 ft 10 kts 358°
2026-05-03 21:04 -20.26387 -40.28056 27 ft 10 kts 352°
2026-05-03 21:04 -20.26315 -40.28065 27 ft 11 kts 353°
2026-05-03 21:05 -20.26242 -40.28075 27 ft 10 kts 350°
2026-05-03 21:05 -20.26175 -40.28086 27 ft 9 kts 358°
2026-05-03 21:05 -20.26123 -40.28094 27 ft 7 kts 354°
2026-05-03 21:05 -20.26065 -40.28102 27 ft 10 kts 353°
2026-05-03 21:06 -20.25989 -40.28113 27 ft 11 kts 352°
2026-05-03 21:06 -20.25914 -40.28124 27 ft 12 kts 353°
2026-05-03 21:06 -20.25825 -40.28137 27 ft 14 kts 352°
2026-05-03 21:06 -20.25728 -40.28152 27 ft 14 kts 352°
2026-05-03 21:07 -20.25625 -40.28167 27 ft 15 kts 352°
2026-05-03 21:07 -20.25517 -40.28184 27 ft 15 kts 352°
2026-05-03 21:07 -20.25416 -40.28197 27 ft 14 kts 353°
2026-05-03 21:07 -20.25323 -40.28166 27 ft 16 kts 30°
2026-05-03 21:08 -20.25223 -40.28099 27 ft 17 kts 32°
2026-05-03 21:08 -20.25120 -40.28064 27 ft 15 kts 359°
2026-05-03 21:08 -20.25021 -40.28077 27 ft 14 kts 351°
2026-05-03 21:08 -20.24933 -40.28090 27 ft 12 kts 352°
2026-05-03 21:09 -20.24854 -40.28099 27 ft 11 kts 359°
2026-05-03 21:09 -20.24790 -40.28095 27 ft 8 kts 320°
2026-05-03 21:09 -20.24807 -40.28113 27 ft 4 kts 160°
2026-05-03 21:09 -20.24912 -40.28093 27 ft 42 kts 173°
2026-05-03 21:10 -20.25430 -40.28018 27 ft 105 kts 172°
2026-05-03 21:10 -20.26309 -40.27894 128 ft 141 kts 177°
2026-05-03 21:10 -20.27288 -40.27751 631 ft 145 kts 174°
2026-05-03 21:10 -20.28355 -40.27600 805 ft 165 kts 174°
2026-05-03 21:11 -20.29568 -40.27424 979 ft 187 kts 176°
2026-05-03 21:11 -20.30918 -40.27230 1127 ft 211 kts 175°
2026-05-03 21:11 -20.32449 -40.27006 1353 ft 233 kts 173°
2026-05-03 21:11 -20.34087 -40.26761 2035 ft 231 kts 174°
2026-05-03 21:12 -20.35611 -40.26591 3231 ft 212 kts 185°
2026-05-03 21:12 -20.36933 -40.27191 3974 ft 214 kts 223°
2026-05-03 21:12 -20.37570 -40.28649 4574 ft 229 kts 258°
2026-05-03 21:12 -20.37422 -40.30381 5164 ft 245 kts 285°
2026-05-03 21:13 -20.36410 -40.31934 5511 ft 274 kts 320°
2026-05-03 21:13 -20.34609 -40.32793 5833 ft 294 kts 344°
2026-05-03 21:13 -20.32594 -40.33269 6437 ft 299 kts 349°
2026-05-03 21:13 -20.30532 -40.33629 7109 ft 299 kts 351°
2026-05-03 21:14 -20.28483 -40.33956 7800 ft 300 kts 351°
2026-05-03 21:14 -20.26401 -40.34297 8343 ft 304 kts 350°
2026-05-03 21:14 -20.24302 -40.34665 8929 ft 307 kts 349°
2026-05-03 21:14 -20.22204 -40.35055 9627 ft 305 kts 349°
2026-05-03 21:15 -20.20120 -40.35461 10267 ft 305 kts 348°
2026-05-03 21:15 -20.17997 -40.35885 10523 ft 319 kts 348°
2026-05-03 21:15 -20.15757 -40.36335 10648 ft 336 kts 348°
2026-05-03 21:15 -20.13421 -40.36805 10970 ft 345 kts 348°
2026-05-03 21:16 -20.11049 -40.37284 11521 ft 348 kts 348°
2026-05-03 21:16 -20.08664 -40.37763 12112 ft 350 kts 348°
2026-05-03 21:16 -20.06266 -40.38242 12673 ft 352 kts 348°
2026-05-03 21:16 -20.03849 -40.38719 13257 ft 354 kts 347°
2026-05-03 21:17 -20.01421 -40.39198 13853 ft 356 kts 347°
2026-05-03 21:17 -19.99804 -40.39520 14206 ft 357 kts 347°
2026-05-03 21:17 -19.96520 -40.40173 14868 ft 361 kts 347°
2026-05-03 21:17 -19.94044 -40.40665 15402 ft 363 kts 346°
2026-05-03 21:18 -19.91549 -40.41160 15966 ft 366 kts 346°
2026-05-03 21:18 -19.89048 -40.41655 16509 ft 369 kts 346°
2026-05-03 21:18 -19.86572 -40.42145 17046 ft 373 kts 347°
2026-05-03 21:18 -19.84042 -40.42646 17632 ft 376 kts 346°
2026-05-03 21:19 -19.81428 -40.43166 18248 ft 379 kts 345°
2026-05-03 21:19 -19.78823 -40.43685 18786 ft 383 kts 345°
2026-05-03 21:19 -19.76227 -40.44201 19294 ft 386 kts 346°
2026-05-03 21:19 -19.73573 -40.44727 19798 ft 389 kts 345°
2026-05-03 21:20 -19.70861 -40.45265 20354 ft 393 kts 344°
2026-05-03 21:20 -19.68173 -40.45799 20884 ft 395 kts 345°
2026-05-03 21:20 -19.65496 -40.46332 21346 ft 399 kts 346°
2026-05-03 21:20 -19.62754 -40.46876 21826 ft 402 kts 344°
2026-05-03 21:21 -19.59990 -40.47422 22326 ft 405 kts 345°
2026-05-03 21:21 -19.57175 -40.47978 22818 ft 409 kts 345°
2026-05-03 21:21 -19.54403 -40.48526 23279 ft 412 kts 345°
2026-05-03 21:21 -19.51571 -40.49086 23725 ft 415 kts 346°
2026-05-03 21:22 -19.48719 -40.49647 24131 ft 418 kts 346°
2026-05-03 21:22 -19.45857 -40.50207 24552 ft 420 kts 346°
2026-05-03 21:22 -19.42977 -40.50772 24987 ft 422 kts 346°
2026-05-03 21:22 -19.40087 -40.51340 25418 ft 423 kts 346°
2026-05-03 21:23 -19.37187 -40.51911 25840 ft 425 kts 345°
2026-05-03 21:23 -19.34281 -40.52485 26257 ft 426 kts 345°
2026-05-03 21:23 -19.31357 -40.53062 26662 ft 428 kts 345°
2026-05-03 21:23 -19.28422 -40.53642 27066 ft 430 kts 345°
2026-05-03 21:24 -19.25477 -40.54223 27419 ft 431 kts 346°
2026-05-03 21:24 -19.22515 -40.54808 27773 ft 434 kts 346°
2026-05-03 21:24 -19.19560 -40.55389 28139 ft 436 kts 346°
2026-05-03 21:24 -19.16567 -40.55978 28521 ft 438 kts 346°
2026-05-03 21:25 -19.13561 -40.56571 28911 ft 440 kts 346°
2026-05-03 21:25 -19.10542 -40.57166 29295 ft 442 kts 346°
2026-05-03 21:25 -19.07517 -40.57761 29668 ft 444 kts 346°
2026-05-03 21:25 -19.04472 -40.58358 30027 ft 446 kts 346°
2026-05-03 21:26 -19.01414 -40.58957 30346 ft 448 kts 346°
2026-05-03 21:26 -18.98344 -40.59559 30630 ft 450 kts 346°
2026-05-03 21:26 -18.95258 -40.60166 30896 ft 452 kts 346°
2026-05-03 21:26 -18.92166 -40.60776 31171 ft 454 kts 346°
2026-05-03 21:27 -18.89060 -40.61385 31536 ft 453 kts 346°
2026-05-03 21:27 -18.85964 -40.61990 31953 ft 452 kts 346°
2026-05-03 21:27 -18.82875 -40.62591 32364 ft 451 kts 346°
2026-05-03 21:27 -18.79796 -40.63193 32780 ft 449 kts 345°
2026-05-03 21:28 -18.76732 -40.63794 33191 ft 448 kts 345°
2026-05-03 21:28 -18.73713 -40.64388 33615 ft 446 kts 345°
2026-05-03 21:28 -18.70664 -40.64987 34041 ft 445 kts 345°
2026-05-03 21:28 -18.67621 -40.65582 34395 ft 444 kts 345°
2026-05-03 21:29 -18.64589 -40.66172 34736 ft 444 kts 345°
2026-05-03 21:29 -18.61555 -40.66764 35067 ft 443 kts 345°
2026-05-03 21:29 -18.58527 -40.67352 35387 ft 442 kts 345°
2026-05-03 21:29 -18.55503 -40.67940 35696 ft 441 kts 345°
2026-05-03 21:30 -18.52491 -40.68530 36008 ft 441 kts 345°
2026-05-03 21:30 -18.49478 -40.69120 36309 ft 440 kts 345°
2026-05-03 21:30 -18.46469 -40.69704 36596 ft 440 kts 346°
2026-05-03 21:30 -18.43397 -40.69945 36848 ft 447 kts 357°
2026-05-03 21:31 -18.40290 -40.69540 37053 ft 454 kts
2026-05-03 21:31 -18.37284 -40.68471 37096 ft 461 kts 21°
2026-05-03 21:31 -18.31625 -40.65222 37100 ft 464 kts 24°
2026-05-03 21:32 -18.25978 -40.61952 37095 ft 463 kts 24°
2026-05-03 21:32 -18.20320 -40.58691 37090 ft 463 kts 24°
2026-05-03 21:33 -18.14669 -40.55435 37093 ft 463 kts 24°
2026-05-03 21:33 -18.09028 -40.52182 37098 ft 463 kts 24°
2026-05-03 21:34 -18.03383 -40.48932 37096 ft 462 kts 24°
2026-05-03 21:34 -17.97746 -40.45686 37085 ft 462 kts 25°
2026-05-03 21:35 -17.92140 -40.42456 37095 ft 462 kts 24°
2026-05-03 21:35 -17.86496 -40.39222 37097 ft 462 kts 24°
2026-05-03 21:36 -17.80845 -40.35988 37098 ft 462 kts 25°
2026-05-03 21:36 -17.75200 -40.32757 37090 ft 462 kts 24°
2026-05-03 21:37 -17.69511 -40.29607 37102 ft 462 kts 24°
2026-05-03 21:37 -17.63816 -40.26498 37100 ft 462 kts 24°
2026-05-03 21:38 -17.58123 -40.23378 37095 ft 461 kts 24°
2026-05-03 21:38 -17.52439 -40.20251 37096 ft 461 kts 24°
2026-05-03 21:39 -17.46764 -40.17121 37090 ft 461 kts 24°
2026-05-03 21:39 -17.41077 -40.13996 37097 ft 461 kts 24°
2026-05-03 21:40 -17.35392 -40.10877 37096 ft 462 kts 24°
2026-05-03 21:40 -17.29745 -40.07756 37099 ft 462 kts 24°
2026-05-03 21:41 -17.24060 -40.04632 37104 ft 462 kts 24°
2026-05-03 21:41 -17.18361 -40.01526 37104 ft 462 kts 24°
2026-05-03 21:42 -17.12673 -39.98423 37099 ft 461 kts 24°
2026-05-03 21:42 -17.06984 -39.95309 37098 ft 461 kts 24°
2026-05-03 21:43 -17.01303 -39.92195 37091 ft 461 kts 24°
2026-05-03 21:43 -16.95613 -39.89083 37091 ft 461 kts 24°
2026-05-03 21:44 -16.89927 -39.85983 37092 ft 461 kts 24°
2026-05-03 21:44 -16.84235 -39.82887 37086 ft 461 kts 24°
2026-05-03 21:45 -16.78546 -39.79784 37083 ft 461 kts 24°
2026-05-03 21:45 -16.72863 -39.76684 37084 ft 461 kts 24°
2026-05-03 21:46 -16.67183 -39.73592 37086 ft 461 kts 24°
2026-05-03 21:46 -16.61491 -39.70500 37083 ft 462 kts 24°
2026-05-03 21:47 -16.55791 -39.67407 37082 ft 462 kts 25°
2026-05-03 21:47 -16.50138 -39.64333 37081 ft 462 kts 25°
2026-05-03 21:48 -16.44439 -39.61243 37079 ft 461 kts 25°
2026-05-03 21:48 -16.38750 -39.58153 37079 ft 461 kts 25°
2026-05-03 21:49 -16.33060 -39.55057 37075 ft 461 kts 25°
2026-05-03 21:49 -16.27370 -39.51971 37071 ft 461 kts 25°
2026-05-03 21:50 -16.21685 -39.48900 37071 ft 460 kts 25°
2026-05-03 21:50 -16.16927 -39.46324 37070 ft 460 kts 25°
2026-05-03 21:51 -16.11243 -39.43247 37069 ft 460 kts 25°
2026-05-03 21:51 -16.05556 -39.40176 37063 ft 460 kts 25°
2026-05-03 21:52 -15.99879 -39.37101 37065 ft 460 kts 25°
2026-05-03 21:52 -15.94228 -39.34051 37065 ft 461 kts 25°
2026-05-03 21:53 -15.88542 -39.30988 37077 ft 461 kts 25°
2026-05-03 21:53 -15.82844 -39.27929 37069 ft 461 kts 25°
2026-05-03 21:54 -15.77160 -39.24861 37076 ft 461 kts 25°
2026-05-03 21:54 -15.71475 -39.21793 37077 ft 460 kts 25°
2026-05-03 21:55 -15.65797 -39.18735 37072 ft 460 kts 25°
2026-05-03 21:55 -15.60110 -39.15680 37073 ft 460 kts 25°
2026-05-03 21:56 -15.54431 -39.12631 37077 ft 460 kts 25°
2026-05-03 21:56 -15.48757 -39.09569 37076 ft 459 kts 25°
2026-05-03 21:57 -15.43087 -39.06516 37043 ft 459 kts 25°
2026-05-03 21:57 -15.37418 -39.03481 37043 ft 459 kts 25°
2026-05-03 21:58 -15.31744 -39.00453 37040 ft 458 kts 25°
2026-05-03 21:58 -15.26081 -38.97424 37040 ft 458 kts 25°
2026-05-03 21:59 -15.20415 -38.94387 37046 ft 458 kts 25°
2026-05-03 21:59 -15.14754 -38.91349 37053 ft 459 kts 25°
2026-05-03 22:00 -15.09082 -38.88320 37059 ft 458 kts 25°
2026-05-03 22:00 -15.03418 -38.85301 37056 ft 458 kts 25°
2026-05-03 22:01 -14.97755 -38.82277 37054 ft 458 kts 25°
2026-05-03 22:01 -14.92187 -38.79296 37052 ft 457 kts 25°
2026-05-03 22:02 -14.86606 -38.76313 37051 ft 457 kts 25°
2026-05-03 22:02 -14.80986 -38.73323 37050 ft 457 kts 25°
2026-05-03 22:03 -14.75327 -38.70312 37050 ft 457 kts 25°
2026-05-03 22:03 -14.69680 -38.67303 37047 ft 456 kts 25°
2026-05-03 22:04 -14.64040 -38.64299 37047 ft 456 kts 25°
2026-05-03 22:04 -14.58434 -38.61314 37043 ft 456 kts 25°
2026-05-03 22:05 -14.52788 -38.58317 37045 ft 456 kts 25°
2026-05-03 22:05 -14.47188 -38.55342 37045 ft 455 kts 25°
2026-05-03 22:06 -14.41517 -38.52325 37046 ft 455 kts 25°
2026-05-03 22:06 -14.35921 -38.49366 37046 ft 455 kts 25°
2026-05-03 22:07 -14.30255 -38.46366 37046 ft 455 kts 25°
2026-05-03 22:07 -14.24663 -38.43394 37047 ft 455 kts 25°
2026-05-03 22:08 -14.19029 -38.40405 37049 ft 455 kts 26°
2026-05-03 22:08 -14.13401 -38.37418 37051 ft 455 kts 26°
2026-05-03 22:09 -14.07791 -38.34447 37051 ft 455 kts 25°
2026-05-03 22:10 -13.99375 -38.30004 37052 ft 455 kts 25°
2026-05-03 22:10 -13.93739 -38.27026 37050 ft 455 kts 25°
2026-05-03 22:11 -13.88168 -38.24088 37050 ft 455 kts 25°
2026-05-03 22:11 -13.82535 -38.21113 37046 ft 455 kts 25°
2026-05-03 22:12 -13.76908 -38.18140 37050 ft 455 kts 25°
2026-05-03 22:12 -13.71356 -38.15210 37051 ft 455 kts 25°
2026-05-03 22:13 -13.65729 -38.12244 37052 ft 455 kts 25°
2026-05-03 22:13 -13.60093 -38.09277 37052 ft 455 kts 25°
2026-05-03 22:14 -13.54515 -38.06344 37054 ft 455 kts 25°
2026-05-03 22:14 -13.48900 -38.03383 37057 ft 454 kts 25°
2026-05-03 22:15 -13.43268 -38.00425 37053 ft 454 kts 25°
2026-05-03 22:15 -13.37664 -37.97485 37055 ft 454 kts 25°
2026-05-03 22:16 -13.32085 -37.94556 37055 ft 453 kts 25°
2026-05-03 22:16 -13.26472 -37.91612 37052 ft 453 kts 25°
2026-05-03 22:17 -13.20850 -37.88667 37051 ft 453 kts 25°
2026-05-03 22:17 -13.15245 -37.85725 37051 ft 453 kts 25°
2026-05-03 22:18 -13.09629 -37.82773 37050 ft 453 kts 25°
2026-05-03 22:18 -13.04019 -37.79828 37043 ft 453 kts 25°
2026-05-03 22:19 -12.98437 -37.76904 37040 ft 453 kts 25°
2026-05-03 22:19 -12.92822 -37.73964 37034 ft 453 kts 25°
2026-05-03 22:20 -12.87196 -37.71029 37037 ft 453 kts 25°
2026-05-03 22:20 -12.81573 -37.68089 37037 ft 453 kts 25°
2026-05-03 22:21 -12.75957 -37.65149 37032 ft 454 kts 25°
2026-05-03 22:21 -12.70330 -37.62212 37030 ft 454 kts 25°
2026-05-03 22:22 -12.64706 -37.59278 37029 ft 454 kts 25°
2026-05-03 22:22 -12.59077 -37.56335 37030 ft 454 kts 25°
2026-05-03 22:23 -12.53454 -37.53396 37030 ft 454 kts 25°
2026-05-03 22:23 -12.47821 -37.50459 37026 ft 454 kts 24°
2026-05-03 22:24 -12.42182 -37.47529 37025 ft 454 kts 24°
2026-05-03 22:24 -12.36549 -37.44597 37025 ft 455 kts 24°
2026-05-03 22:25 -12.30908 -37.41660 37025 ft 455 kts 24°
2026-05-03 22:25 -12.25274 -37.38727 37026 ft 455 kts 24°
2026-05-03 22:26 -12.19632 -37.35794 37026 ft 455 kts 24°
2026-05-03 22:26 -12.13998 -37.32863 37026 ft 455 kts 24°
2026-05-03 22:27 -12.08358 -37.29928 37026 ft 455 kts 24°
2026-05-03 22:27 -12.02722 -37.27005 37026 ft 455 kts 24°
2026-05-03 22:28 -11.97076 -37.24082 37023 ft 455 kts 24°
2026-05-03 22:28 -11.91432 -37.21149 37025 ft 455 kts 24°
2026-05-03 22:29 -11.85789 -37.18221 37026 ft 455 kts 24°
2026-05-03 22:29 -11.80133 -37.15297 37025 ft 456 kts 24°
2026-05-03 22:30 -11.74484 -37.12367 37023 ft 456 kts 24°
2026-05-03 22:30 -11.68828 -37.09433 37020 ft 456 kts 24°
2026-05-03 22:31 -11.63169 -37.06504 37017 ft 457 kts 24°
2026-05-03 22:31 -11.57498 -37.03571 37019 ft 457 kts 24°
2026-05-03 22:32 -11.51828 -37.00642 37022 ft 457 kts 24°
2026-05-03 22:32 -11.46185 -36.97730 37024 ft 457 kts 24°
2026-05-03 22:33 -11.40508 -36.94803 37024 ft 458 kts 23°
2026-05-03 22:33 -11.34821 -36.91868 37025 ft 458 kts 23°
2026-05-03 22:34 -11.29137 -36.88935 37027 ft 458 kts 23°
2026-05-03 22:34 -11.23442 -36.86003 37025 ft 458 kts 23°
2026-05-03 22:35 -11.17745 -36.83070 37025 ft 459 kts 23°
2026-05-03 22:35 -11.12051 -36.80145 37027 ft 459 kts 23°
2026-05-03 22:36 -11.06351 -36.77213 37029 ft 459 kts 23°
2026-05-03 22:36 -11.00663 -36.74283 37029 ft 458 kts 23°
2026-05-03 22:37 -10.95929 -36.71847 37029 ft 458 kts 23°
2026-05-03 22:37 -10.90238 -36.68926 37029 ft 458 kts 23°
2026-05-03 22:38 -10.84542 -36.66000 37028 ft 459 kts 23°
2026-05-03 22:38 -10.78847 -36.63083 37028 ft 458 kts 23°
2026-05-03 22:39 -10.73126 -36.60207 37028 ft 458 kts 22°
2026-05-03 22:39 -10.67407 -36.57350 37028 ft 458 kts 22°
2026-05-03 22:40 -10.61683 -36.54477 37027 ft 459 kts 22°
2026-05-03 22:40 -10.55971 -36.51595 37042 ft 458 kts 22°
2026-05-03 22:41 -10.50259 -36.48716 37052 ft 458 kts 22°
2026-05-03 22:41 -10.44553 -36.45852 37052 ft 457 kts 22°
2026-05-03 22:42 -10.38861 -36.43000 37047 ft 456 kts 22°
2026-05-03 22:42 -10.33179 -36.40139 37042 ft 456 kts 23°
2026-05-03 22:43 -10.27498 -36.37278 37047 ft 455 kts 23°
2026-05-03 22:43 -10.21823 -36.34433 37044 ft 454 kts 23°
2026-05-03 22:44 -10.16163 -36.31594 37039 ft 454 kts 23°
2026-05-03 22:44 -10.10500 -36.28755 37040 ft 454 kts 23°
2026-05-03 22:45 -10.04846 -36.25920 37040 ft 454 kts 23°
2026-05-03 22:45 -9.99181 -36.23086 37010 ft 454 kts 23°
2026-05-03 22:46 -9.93507 -36.20243 37013 ft 456 kts 23°
2026-05-03 22:46 -9.87812 -36.17386 37023 ft 457 kts 23°
2026-05-03 22:47 -9.82108 -36.14530 37024 ft 457 kts 23°
2026-05-03 22:47 -9.76407 -36.11676 37024 ft 457 kts 23°
2026-05-03 22:48 -9.70702 -36.08821 37037 ft 457 kts 23°
2026-05-03 22:48 -9.65003 -36.05978 37043 ft 457 kts 23°
2026-05-03 22:49 -9.59346 -36.03157 37021 ft 450 kts 23°
2026-05-03 22:49 -9.56546 -36.01755 37018 ft 436 kts 23°
2026-05-03 22:49 -9.53866 -36.00393 37020 ft 430 kts 26°
2026-05-03 22:49 -9.51456 -35.98607 37021 ft 432 kts 43°
2026-05-03 22:50 -9.49634 -35.96234 37016 ft 435 kts 60°
2026-05-03 22:50 -9.48528 -35.93381 37011 ft 438 kts 78°
2026-05-03 22:50 -9.48270 -35.90321 37003 ft 439 kts 95°
2026-05-03 22:50 -9.48876 -35.87303 36998 ft 438 kts 112°
2026-05-03 22:51 -9.50288 -35.84592 37003 ft 435 kts 129°
2026-05-03 22:51 -9.52376 -35.82408 37000 ft 430 kts 146°
2026-05-03 22:51 -9.54942 -35.80917 36998 ft 424 kts 163°
2026-05-03 22:51 -9.57772 -35.80203 36994 ft 416 kts 179°
2026-05-03 22:52 -9.60633 -35.80289 36987 ft 409 kts 194°
2026-05-03 22:52 -9.65926 -35.82189 36986 ft 403 kts 208°
2026-05-03 22:53 -9.70943 -35.84722 36987 ft 403 kts 211°
2026-05-03 22:53 -9.75844 -35.87486 36995 ft 401 kts 221°
2026-05-03 22:53 -9.77830 -35.89422 37000 ft 395 kts 234°
2026-05-03 22:54 -9.79282 -35.91766 37005 ft 392 kts 248°
2026-05-03 22:54 -9.80106 -35.94380 37005 ft 389 kts 262°
2026-05-03 22:54 -9.80247 -35.97105 37011 ft 388 kts 276°
2026-05-03 22:54 -9.79702 -35.99769 37012 ft 388 kts 289°
2026-05-03 22:55 -9.78503 -36.02218 37010 ft 390 kts 303°
2026-05-03 22:55 -9.76722 -36.04296 37008 ft 393 kts 317°
2026-05-03 22:55 -9.74458 -36.05864 37008 ft 397 kts 332°
2026-05-03 22:55 -9.71838 -36.06796 37005 ft 403 kts 346°
2026-05-03 22:56 -9.69034 -36.07008 37003 ft 409 kts
2026-05-03 22:56 -9.66227 -36.06459 37006 ft 415 kts 16°
2026-05-03 22:56 -9.63525 -36.05397 36998 ft 418 kts 20°
2026-05-03 22:57 -9.58258 -36.02825 36992 ft 422 kts 24°
2026-05-03 22:57 -9.53085 -35.99981 36991 ft 426 kts 33°
2026-05-03 22:57 -9.50904 -35.97952 36989 ft 430 kts 50°
2026-05-03 22:58 -9.49338 -35.95370 36984 ft 433 kts 67°
2026-05-03 22:58 -9.48547 -35.92433 36977 ft 434 kts 84°
2026-05-03 22:58 -9.48638 -35.89391 36971 ft 433 kts 103°
2026-05-03 22:58 -9.49598 -35.86528 36970 ft 430 kts 121°
2026-05-03 22:59 -9.51330 -35.84085 36988 ft 428 kts 138°
2026-05-03 22:59 -9.53669 -35.82244 37001 ft 425 kts 155°
2026-05-03 22:59 -9.56399 -35.81166 37003 ft 419 kts 172°
2026-05-03 22:59 -9.59276 -35.80911 37004 ft 413 kts 188°
2026-05-03 23:00 -9.62060 -35.81462 37000 ft 407 kts 203°
2026-05-03 23:00 -9.66955 -35.84132 37010 ft 396 kts 232°
2026-05-03 23:00 -9.68442 -35.86404 37019 ft 392 kts 248°
2026-05-03 23:01 -9.69277 -35.88843 37016 ft 391 kts 259°
2026-05-03 23:01 -9.69619 -35.91531 37018 ft 390 kts 270°
2026-05-03 23:01 -9.69343 -35.94253 37013 ft 389 kts 284°
2026-05-03 23:01 -9.68378 -35.96785 37010 ft 390 kts 299°
2026-05-03 23:02 -9.66744 -35.98980 37009 ft 393 kts 314°
2026-05-03 23:02 -9.64567 -36.00660 37005 ft 397 kts 329°
2026-05-03 23:02 -9.61997 -36.01706 36999 ft 402 kts 344°
2026-05-03 23:02 -9.59206 -36.02024 36993 ft 408 kts 360°
2026-05-03 23:03 -9.56393 -36.01557 36991 ft 414 kts 15°
2026-05-03 23:03 -9.51115 -35.99070 37015 ft 425 kts 23°
2026-05-03 23:04 -9.45704 -35.96350 36300 ft 445 kts 23°
2026-05-03 23:04 -9.42929 -35.94957 35735 ft 444 kts 23°
2026-05-03 23:04 -9.40166 -35.93572 35206 ft 442 kts 23°
2026-05-03 23:04 -9.37408 -35.92194 34664 ft 442 kts 23°
2026-05-03 23:05 -9.34654 -35.90820 34128 ft 441 kts 23°
2026-05-03 23:05 -9.31902 -35.89451 33540 ft 440 kts 23°
2026-05-03 23:05 -9.29160 -35.88087 33009 ft 438 kts 24°
2026-05-03 23:05 -9.26420 -35.86723 32132 ft 444 kts 24°
2026-05-03 23:06 -9.23624 -35.85332 31329 ft 448 kts 25°
2026-05-03 23:06 -9.20839 -35.83944 30851 ft 445 kts 25°
2026-05-03 23:06 -9.18072 -35.82564 30327 ft 442 kts 26°
2026-05-03 23:06 -9.15358 -35.81211 29760 ft 439 kts 26°
2026-05-03 23:07 -9.12630 -35.79851 29254 ft 434 kts 26°
2026-05-03 23:07 -9.09934 -35.78508 28757 ft 429 kts 26°
2026-05-03 23:07 -9.07272 -35.77180 28276 ft 424 kts 26°
2026-05-03 23:07 -9.04642 -35.75867 27797 ft 419 kts 27°
2026-05-03 23:08 -9.02120 -35.74437 27357 ft 412 kts 35°
2026-05-03 23:08 -8.99909 -35.72629 26916 ft 406 kts 44°
2026-05-03 23:08 -8.97878 -35.70678 26472 ft 401 kts 44°
2026-05-03 23:08 -8.95863 -35.68748 26047 ft 397 kts 44°
2026-05-03 23:09 -8.93868 -35.66841 25597 ft 393 kts 44°
2026-05-03 23:09 -8.91889 -35.64956 25147 ft 389 kts 44°
2026-05-03 23:09 -8.89927 -35.63089 24689 ft 386 kts 45°
2026-05-03 23:09 -8.87981 -35.61234 24223 ft 383 kts 45°
2026-05-03 23:10 -8.86051 -35.59394 23767 ft 380 kts 45°
2026-05-03 23:10 -8.84132 -35.57565 23243 ft 378 kts 45°
2026-05-03 23:10 -8.82230 -35.55752 22781 ft 374 kts 45°
2026-05-03 23:10 -8.80348 -35.53957 22305 ft 370 kts 45°
2026-05-03 23:11 -8.78482 -35.52178 21854 ft 367 kts 45°
2026-05-03 23:11 -8.76630 -35.50417 21410 ft 364 kts 45°
2026-05-03 23:11 -8.74791 -35.48672 20965 ft 361 kts 45°
2026-05-03 23:11 -8.72966 -35.46942 20519 ft 358 kts 45°
2026-05-03 23:12 -8.71158 -35.45222 20085 ft 356 kts 45°
2026-05-03 23:12 -8.69365 -35.43513 19638 ft 353 kts 45°
2026-05-03 23:12 -8.67585 -35.41818 19199 ft 350 kts 45°
2026-05-03 23:12 -8.65816 -35.40136 18762 ft 348 kts 45°
2026-05-03 23:13 -8.64083 -35.38488 18335 ft 346 kts 45°
2026-05-03 23:13 -8.62337 -35.36831 17857 ft 343 kts 45°
2026-05-03 23:13 -8.60610 -35.35192 17433 ft 338 kts 45°
2026-05-03 23:13 -8.58883 -35.33554 17005 ft 334 kts 44°
2026-05-03 23:14 -8.57224 -35.31980 16605 ft 329 kts 44°
2026-05-03 23:14 -8.55567 -35.30410 16206 ft 325 kts 44°
2026-05-03 23:14 -8.53927 -35.28859 15812 ft 321 kts 44°
2026-05-03 23:14 -8.52310 -35.27327 15437 ft 317 kts 44°
2026-05-03 23:15 -8.50716 -35.25814 15057 ft 312 kts 44°
2026-05-03 23:15 -8.49141 -35.24319 14678 ft 309 kts 43°
2026-05-03 23:15 -8.47584 -35.22841 14306 ft 305 kts 43°
2026-05-03 23:15 -8.46043 -35.21381 13938 ft 302 kts 43°
2026-05-03 23:16 -8.44517 -35.19936 13537 ft 299 kts 43°
2026-05-03 23:16 -8.43010 -35.18510 13174 ft 294 kts 43°
2026-05-03 23:16 -8.41526 -35.17107 12813 ft 290 kts 43°
2026-05-03 23:16 -8.40060 -35.15721 12452 ft 288 kts 43°
2026-05-03 23:17 -8.38604 -35.14345 12093 ft 286 kts 43°
2026-05-03 23:17 -8.37155 -35.12975 11724 ft 284 kts 43°
2026-05-03 23:17 -8.35717 -35.11614 11357 ft 282 kts 43°
2026-05-03 23:17 -8.34292 -35.10266 10998 ft 279 kts 43°
2026-05-03 23:18 -8.32883 -35.08937 10635 ft 276 kts 43°
2026-05-03 23:18 -8.31490 -35.07622 10271 ft 273 kts 43°
2026-05-03 23:18 -8.30127 -35.06334 9915 ft 271 kts 43°
2026-05-03 23:18 -8.28689 -35.05072 9511 ft 270 kts 35°
2026-05-03 23:19 -8.27049 -35.04168 9136 ft 269 kts 21°
2026-05-03 23:19 -8.25276 -35.03656 8756 ft 269 kts 13°
2026-05-03 23:19 -8.23455 -35.03229 8377 ft 268 kts 14°
2026-05-03 23:19 -8.21643 -35.02802 7992 ft 268 kts 14°
2026-05-03 23:20 -8.19833 -35.02373 7594 ft 267 kts 14°
2026-05-03 23:20 -8.18013 -35.02028 7196 ft 266 kts
2026-05-03 23:20 -8.16155 -35.02109 6715 ft 275 kts 351°
2026-05-03 23:20 -8.14263 -35.02635 6008 ft 286 kts 343°
2026-05-03 23:21 -8.12344 -35.03245 5319 ft 292 kts 343°
2026-05-03 23:21 -8.10404 -35.03858 4791 ft 290 kts 343°
2026-05-03 23:21 -8.08487 -35.04461 4278 ft 288 kts 343°
2026-05-03 23:21 -8.06579 -35.05058 3792 ft 284 kts 344°
2026-05-03 23:22 -8.02947 -35.06193 3292 ft 261 kts 344°
2026-05-03 23:22 -8.01260 -35.06713 3162 ft 246 kts 347°
2026-05-03 23:22 -7.99632 -35.06741 3049 ft 227 kts 20°
2026-05-03 23:23 -7.98359 -35.05961 2960 ft 208 kts 53°
2026-05-03 23:23 -7.97691 -35.04731 2893 ft 197 kts 77°
2026-05-03 23:23 -7.97268 -35.03423 2819 ft 196 kts 76°
2026-05-03 23:23 -7.96840 -35.02121 2764 ft 195 kts 76°
2026-05-03 23:24 -7.96502 -35.00809 2710 ft 191 kts 89°
2026-05-03 23:24 -7.96592 -34.99491 2669 ft 187 kts 108°
2026-05-03 23:24 -7.97107 -34.98304 2628 ft 186 kts 126°
2026-05-03 23:24 -7.97984 -34.97362 2581 ft 184 kts 144°
2026-05-03 23:25 -7.98717 -34.96925 2503 ft 185 kts 156°
2026-05-03 23:25 -8.00349 -34.96370 2250 ft 185 kts 161°
2026-05-03 23:25 -8.01152 -34.96106 2117 ft 180 kts 161°
2026-05-03 23:25 -8.02316 -34.95722 1879 ft 172 kts 162°
2026-05-03 23:26 -8.03428 -34.95356 1651 ft 163 kts 161°
2026-05-03 23:26 -8.04465 -34.95014 1449 ft 150 kts 162°
2026-05-03 23:26 -8.05432 -34.94695 1260 ft 144 kts 162°
2026-05-03 23:26 -8.06677 -34.94273 972 ft 142 kts 162°
2026-05-03 23:27 -8.07610 -34.93968 798 ft 141 kts 161°
2026-05-03 23:27 -8.08240 -34.93761 698 ft 141 kts 162°
2026-05-03 23:27 -8.09173 -34.93454 556 ft 141 kts 161°
2026-05-03 23:27 -8.10110 -34.93149 381 ft 141 kts 162°
2026-05-03 23:28 -8.11032 -34.92846 194 ft 138 kts 160°
2026-05-03 23:28 -8.11923 -34.92550 43 ft 133 kts 161°
2026-05-03 23:28 -8.12651 -34.92312 38 ft 85 kts 162°
2026-05-03 23:28 -8.13053 -34.92180 40 ft 36 kts 162°
2026-05-03 23:29 -8.13202 -34.92111 40 ft 21 kts 140°
2026-05-03 23:29 -8.13273 -34.92039 39 ft 13 kts 133°
2026-05-03 23:29 -8.13280 -34.91988 39 ft 3 kts 64°
2026-05-03 23:29 -8.13263 -34.91971 38 ft 4 kts 33°
2026-05-03 23:30 -8.13234 -34.91971 39 ft 4 kts 346°
2026-05-03 23:30 -8.13212 -34.91977 39 ft 1 kts 345°
2026-05-03 23:30 -8.13203 -34.91979 39 ft 1 kts 345°
2026-05-03 23:30 -8.13193 -34.91983 38 ft 4 kts 341°
2026-05-03 23:31 -8.13172 -34.91987 40 ft 2 kts
2026-05-03 23:31 -8.13155 -34.91962 40 ft 5 kts 70°
2026-05-03 23:31 -8.13143 -34.91926 38 ft 4 kts 72°
2026-05-03 23:31 -8.13141 -34.91918 40 ft 0 kts 72°
2026-05-03 23:33 -8.13142 -34.91921 38 ft 2 kts 72°
2026-05-03 23:33 -8.13151 -34.91949 40 ft 0 kts 71°